Weather History for LEPA - September, 2014

Change the Weather History Date:

Thursday, September 11, 2014

  Actual Average Record
Temperature  
Mean Temperature 80 °F -  
Max Temperature 88 °F 77 °F 89 °F (2004)
Min Temperature 72 °F 59 °F 55 °F (2001)
Cooling Degree Days 15    
Growing Degree Days 30 (Base 50)    
Moisture  
Dew Point 72 °F    
Average Humidity 75    
Maximum Humidity 90    
Minimum Humidity 51    
Precipitation  
Precipitation 0.00 in 0.07 in - ()
Sea Level Pressure  
Sea Level Pressure 29.86 in    
Wind  
Wind Speed 7 mph ()    
Max Wind Speed 22 mph    
Max Gust Speed -    
Visibility 7.4 miles    
Events      
Averages and records for this station are not official NWS values.
T = Trace of Precipitation, MM = Missing Value Source: Averaged Metar Reports

Daily Weather History Graph

Daily Weather History Graph

Search for Another Location

Airport or City:

Trip Planner

Search our weather history database for the weather conditions in past years. The results will help you decide how hot, cold, wet, or windy it might be!

Date:

Astronomy

Sep. 11, 2014 Rise Set
Actual Time 7:26 AM CEST 8:04 PM CEST
Civil Twilight 6:59 AM CEST 8:31 PM CEST
Nautical Twilight 6:27 AM CEST 9:03 PM CEST
Astronomical Twilight 5:54 AM CEST 9:36 PM CEST
Moon 9:33 PM CEST (9/11) 10:04 AM CEST (9/11)
Length of Visible Light 13h 32m
Length of Day
12h 38m
Waning Gibbous, 92% of the Moon is Illuminated
Sep 11
Waning Gibbous
Sep 16
Last Quarter
Sep 24
New
Oct 1
First Quarter
Oct 8
Full

Hourly Weather History & Observations

Time (CEST) Temp. Heat Index Dew Point Humidity Pressure Visibility Wind Dir Wind Speed Gust Speed Precip Events Conditions
12:00 AM 79 °F - 74 °F 79% 29.91 in - WSW 9.2 mph - -  
12:00 AM 78.8 °F - 73.4 °F 83% 29.89 in 6.2 mi SW 5.8 mph - N/A   Scattered Clouds
12:30 AM 78.8 °F - 71.6 °F 78% 29.89 in 6.2 mi SW 5.8 mph - N/A   Scattered Clouds
1:00 AM 79 °F - 74 °F 79% 29.90 in - WSW 8.1 mph - -  
1:00 AM 78.8 °F - 73.4 °F 83% 29.89 in 6.2 mi WSW 5.8 mph - N/A   Scattered Clouds
1:30 AM 78.8 °F - 71.6 °F 78% 29.89 in 6.2 mi SW 6.9 mph - N/A   Scattered Clouds
2:00 AM 79 °F - 73 °F 77% 29.90 in 11 mi WSW 9.2 mph - -   Partly Cloudy
2:00 AM 78.8 °F - 71.6 °F 78% 29.89 in 6.2 mi WSW 6.9 mph - N/A   Scattered Clouds
2:30 AM 78.8 °F - 71.6 °F 78% 29.89 in 6.2 mi WSW 6.9 mph - N/A   Scattered Clouds
3:00 AM 78 °F - 72 °F 77% 29.88 in - WSW 6.9 mph - -  
3:00 AM 78.8 °F - 71.6 °F 78% 29.89 in 6.2 mi SW 3.5 mph - N/A   Scattered Clouds
3:30 AM 77.0 °F - 69.8 °F 78% 29.86 in 6.2 mi WSW 4.6 mph - N/A   Scattered Clouds
4:00 AM 74 °F - 70 °F 85% 29.87 in - North 2.3 mph - -  
4:00 AM 75.2 °F - 69.8 °F 83% 29.86 in 6.2 mi Calm Calm - N/A   Scattered Clouds
4:30 AM 75.2 °F - 69.8 °F 83% 29.86 in 6.2 mi Calm Calm - N/A   Scattered Clouds
5:00 AM 74 °F - 70 °F 85% 29.86 in 9 mi Calm Calm - -   Partly Cloudy
5:00 AM 73.4 °F - 69.8 °F 88% 29.86 in 6.2 mi Calm Calm - N/A   Scattered Clouds
5:30 AM 73.4 °F - 68.0 °F 83% 29.86 in 6.2 mi Calm Calm - N/A   Scattered Clouds
6:00 AM 72 °F - 69 °F 89% 29.86 in - Calm Calm - -  
6:00 AM 71.6 °F - 68.0 °F 88% 29.86 in 6.2 mi Variable 1.2 mph - N/A   Scattered Clouds
6:30 AM 73.4 °F - 69.8 °F 88% 29.86 in 6.2 mi Calm Calm - N/A   Mostly Cloudy
7:00 AM 73 °F - 71 °F 90% 29.86 in - NE 2.3 mph - -  
7:30 AM 73.4 °F - 69.8 °F 88% 29.86 in 6.2 mi Variable 1.2 mph - N/A   Mostly Cloudy
8:00 AM 74 °F - 71 °F 86% 29.86 in 16 mi Calm Calm - -   Partly Cloudy
8:00 AM 73.4 °F - 69.8 °F 88% 29.86 in 6.2 mi Variable 1.2 mph - N/A   Scattered Clouds
8:30 AM 75.2 °F - 71.6 °F 89% 29.86 in 6.2 mi Variable 1.2 mph - N/A   Scattered Clouds
9:00 AM 77 °F - 72 °F 79% 29.86 in - North 2.3 mph - -  
9:00 AM 77.0 °F - 71.6 °F 83% 29.86 in 6.2 mi Calm Calm - N/A   Scattered Clouds
9:30 AM 80.6 °F 85.4 °F 73.4 °F 79% 29.86 in 6.2 mi SW 10.4 mph - N/A   Scattered Clouds
10:00 AM 83 °F - 74 °F 69% 29.86 in - SW 13.8 mph - -  
10:00 AM 80.6 °F 85.4 °F 73.4 °F 79% 29.86 in 6.2 mi SW 11.5 mph - N/A   Scattered Clouds
10:30 AM 82.4 °F 88.2 °F 73.4 °F 74% 29.86 in 6.2 mi SW 12.7 mph - N/A   Scattered Clouds
11:00 AM 84 °F - 73 °F 63% 29.87 in 16 mi SW 16.1 mph - -   Partly Cloudy
11:00 AM 82.4 °F 88.2 °F 73.4 °F 74% 29.86 in 6.2 mi SW 13.8 mph - N/A   Scattered Clouds
11:30 AM 84.2 °F 89.6 °F 71.6 °F 66% 29.86 in 6.2 mi WSW 12.7 mph - N/A   Partly Cloudy
12:00 PM 86 °F - 73 °F 58% 29.87 in - SW 15.0 mph - -  
12:00 PM 84.2 °F 90.9 °F 73.4 °F 70% 29.86 in 6.2 mi SW 12.7 mph - N/A   Partly Cloudy
12:30 PM 84.2 °F 90.9 °F 73.4 °F 70% 29.86 in 6.2 mi SW 15.0 mph - N/A   Partly Cloudy
1:00 PM 87 °F - 74 °F 58% 29.86 in - SW 18.4 mph - -  
1:00 PM 84.2 °F 90.9 °F 73.4 °F 70% 29.86 in 6.2 mi SW 15.0 mph - N/A   Partly Cloudy
1:30 PM 86.0 °F 93.4 °F 73.4 °F 66% 29.86 in 6.2 mi SW 16.1 mph - N/A   Partly Cloudy
2:00 PM 86 °F - 75 °F 63% 29.86 in 16 mi SW 21.9 mph - -   Scattered Clouds
2:00 PM 84.2 °F 90.9 °F 73.4 °F 70% 29.86 in 6.2 mi SSW 17.3 mph - N/A   Partly Cloudy
2:30 PM 86.0 °F 95.1 °F 75.2 °F 70% 29.86 in 6.2 mi SW 16.1 mph - N/A   Partly Cloudy
3:00 PM 87 °F - 74 °F 58% 29.85 in - SW 17.3 mph - -  
3:00 PM 86.0 °F 93.4 °F 73.4 °F 66% 29.86 in 6.2 mi SW 16.1 mph - N/A   Partly Cloudy
3:30 PM 86.0 °F 93.4 °F 73.4 °F 66% 29.83 in 6.2 mi SW 17.3 mph - N/A   Partly Cloudy
4:00 PM 88 °F - 72 °F 51% 29.85 in - SW 19.6 mph - -  
4:00 PM 87.8 °F 93.8 °F 71.6 °F 58% 29.83 in 6.2 mi SW 17.3 mph - N/A   Partly Cloudy
4:30 PM 86.0 °F 91.8 °F 71.6 °F 62% 29.83 in 6.2 mi SW 16.1 mph - N/A   Partly Cloudy
5:00 PM 86 °F - 74 °F 60% 29.84 in 16 mi SW 17.3 mph - -   Scattered Clouds
5:00 PM 84.2 °F 90.9 °F 73.4 °F 70% 29.83 in 6.2 mi SW 16.1 mph - N/A   Partly Cloudy
5:30 PM 84.2 °F 90.9 °F 73.4 °F 70% 29.83 in 6.2 mi SW 16.1 mph - N/A   Partly Cloudy
6:00 PM 85 °F - 75 °F 64% 29.84 in - SW 16.1 mph - -  
6:00 PM 84.2 °F 90.9 °F 73.4 °F 70% 29.83 in 6.2 mi SW 17.3 mph - N/A   Partly Cloudy
6:30 PM 84.2 °F 92.3 °F 75.2 °F 74% 29.83 in 6.2 mi SW 13.8 mph - N/A   Partly Cloudy
7:00 PM 84 °F - 75 °F 67% 29.84 in - SW 16.1 mph - -  
7:30 PM 82.4 °F 88.2 °F 73.4 °F 74% 29.83 in 6.2 mi SSW 11.5 mph - N/A   Partly Cloudy
8:00 PM 82 °F - 74 °F 72% 29.85 in 12 mi SW 12.7 mph - -   Scattered Clouds
8:00 PM 82.4 °F 88.2 °F 73.4 °F 74% 29.83 in - SSW 10.4 mph - N/A   Clear
8:30 PM 80.6 °F 85.4 °F 73.4 °F 79% 29.86 in - Variable 2.3 mph - N/A   Clear
9:00 PM 80 °F - 74 °F 77% 29.87 in - SW 6.9 mph - -  
9:00 PM 80.6 °F 85.4 °F 73.4 °F 79% 29.86 in - Variable 1.2 mph - N/A   Clear
9:30 PM 80.6 °F 84.6 °F 71.6 °F 74% 29.86 in - SSW 2.3 mph - N/A   Clear
10:00 PM 80 °F - 72 °F 70% 29.89 in - SW 4.6 mph - -  
10:00 PM 80.6 °F 84.6 °F 71.6 °F 74% 29.89 in - East 1.2 mph - N/A   Clear
10:30 PM 80.6 °F 83.9 °F 69.8 °F 70% 29.89 in - ESE 1.2 mph - N/A   Clear
11:00 PM 76 °F - 71 °F 82% 29.89 in 9 mi East 2.3 mph - -   Scattered Clouds
11:00 PM 77.0 °F - 69.8 °F 78% 29.89 in - SE 1.2 mph - N/A   Clear
11:30 PM 75.2 °F - 69.8 °F 83% 29.89 in - Variable 2.3 mph - N/A   Clear